Regional Weather Roundup
Issued by NWS Raleigh/Durham, NC

Home | Current Version | Previous Version | Text Only | Print | Product List | Glossary On
Versions: 1 2 3 4 5 6 7 8 9 10 11 12 13 14 15 16 17 18 19 20 21 22 23 24 25 26 27 28 29 30 31 32 33 34 35 36 37 38 39 40 41 42 43 44 45 46 47 48 49 50
000
ASUS42 KRAH 250510
RWRRAH
NORTH CAROLINA WEATHER ROUNDUP
NATIONAL WEATHER SERVICE RALEIGH NC
100 AM EDT SUN JUN 25 2017

NOTE: "FAIR" INDICATES FEW OR NO CLOUDS BELOW 12,000 FEET WITH NO
SIGNIFICANT WEATHER AND/OR OBSTRUCTIONS TO VISIBILITY.

NCZ001-053-055-056-065-067-250600-
WESTERN NORTH CAROLINA

CITY           SKY/WX    TMP DP  RH WIND       PRES   REMARKS
ASHEVILLE      CLEAR     68  58  70 N6        30.15R
JEFFERSON      PTCLDY    65  53  64 NW7       30.17S
HICKORY        PTCLDY    70  69  97 NW5       30.07R
RUTHERFORDTON  NOT AVBL
MOUNT AIRY     PTCLDY    69  63  81 CALM      30.08S
BOONE          NOT AVBL
$$

NCZ021-022-025-041-071-084-088-250600-
CENTRAL NORTH CAROLINA

CITY           SKY/WX    TMP DP  RH WIND       PRES   REMARKS
CHARLOTTE      CLOUDY    71  67  87 W3        30.06R
GREENSBORO     PTCLDY    70  70 100 SW5       30.04S
WINSTON-SALEM  PTCLDY    71  68  90 MISG      30.06S
RALEIGH-DURHAM MOCLDY    72  70  93 CALM      30.02F
FORT BRAGG     CLOUDY    72  71  98 CALM      30.02S
FAYETTEVILLE   CLOUDY    74  72  93 SE3       30.02S
BURLINGTON     CLOUDY    72  71  97 S5        30.03F
LAURINBURG     CLOUDY    76  76 100 SW3       30.03S
$$

NCZ011-015-027-028-043-044-047-080-103-250600-
NORTHEASTERN NORTH CAROLINA

CITY           SKY/WX    TMP DP  RH WIND       PRES   REMARKS
ROCKY MT-WILSO CLOUDY    71  71 100 CALM      30.01F
GREENVILLE     CLOUDY    73  73 100 CALM      30.03S
WASHINGTON     CLOUDY   N/A N/A N/A S5        30.01S
ELIZABETH CITY CLOUDY    73  73 100 SW7       29.98R
MANTEO         DRIZZLE   75  73  93 CALM      29.98F
CAPE HATTERAS  CLOUDY    77  73  87 W13G22    30.02S
$$

NCZ078-087-090-091-093-098-101-250600-
SOUTHEASTERN NORTH CAROLINA

CITY           SKY/WX    TMP DP  RH WIND       PRES   REMARKS
LUMBERTON      MOCLDY    76  75  97 CALM      30.02S
GOLDSBORO      CLOUDY    73  73 100 CALM      30.00F
KINSTON        CLOUDY    74  74  98 CALM      30.02S
KENANSVILLE    CLOUDY    73  72  94 CALM      30.03S
NEW BERN       CLOUDY    73  73 100 SW6       30.02S
CHERRY POINT   RAIN      75  73  93 SW8       30.01F
BEAUFORT       LGT RAIN  77  77 100 SW12      30.02F
JACKSONVILLE   NOT AVBL
WILMINGTON     LGT RAIN  77  76  96 SW3       30.04R FOG
$$




USA.gov is the U.S. government's official web portal to all federal, state and local government web resources and services.